Date,TemperatureHighF,TemperatureAvgF,TemperatureLowF,DewpointHighF,DewpointAvgF,DewpointLowF,HumidityHigh,HumidityAvg,HumidityLow,PressureMaxIn,PressureMinIn,WindSpeedMaxMPH,WindSpeedAvgMPH,GustSpeedMaxMPH,PrecipitationSumIn
2013-8-1,80,69,60,64,60,55,98,77,44,29.98,29.92,8,1,17,0.01
2013-8-2,84,74,64,72,66,59,96,79,64,29.92,29.82,8,1,18,0.67
2013-8-3,78,70,62,68,61,55,97,75,45,30.08,29.91,6,2,13,0.68
2013-8-4,79,69,57,62,58,53,95,71,40,30.15,30.06,5,1,10,0.01
2013-8-5,74,67,59,66,62,56,92,83,69,30.08,29.83,5,1,13,0.06
2013-8-6,82,73,64,74,69,63,97,87,73,29.87,29.79,4,1,9,0.01
2013-8-7,85,76,70,77,72,68,95,86,67,29.89,29.76,12,1,21,0.03
2013-8-8,79,72,64,68,63,56,93,76,60,29.96,29.89,6,1,12,0.03
2013-8-9,80,71,58,69,63,57,96,76,58,30.01,29.94,3,0,7,0.00
2013-8-10,79,71,61,67,62,59,94,76,51,30.09,30.01,6,1,10,0.00
2013-8-11,84,70,56,70,62,55,96,77,53,30.11,30.00,3,0,7,0.00
2013-8-12,82,73,63,71,66,61,93,80,63,30.02,29.84,4,1,9,0.00
2013-8-13,71,64,55,65,54,-100,94,73,44,30.11,29.90,7,2,16,0.00
2013-8-14,73,60,50,56,50,-100,95,74,45,30.20,30.11,4,1,10,0.01
2013-8-15,74,57,53,61,43,-100,95,76,53,30.16,30.08,3,0,8,0.01
2013-8-16,80,65,52,62,53,-100,96,72,43,30.14,30.09,4,0,10,0.00
2013-8-17,79,67,54,61,55,-100,95,71,45,30.20,30.11,4,1,12,0.00
2013-8-18,84,68,54,65,58,52,95,74,45,30.17,30.06,4,0,9,0.00
2013-8-19,83,67,57,68,52,-100,96,77,55,30.10,30.00,3,0,8,0.00
2013-8-20,85,73,62,69,64,-100,96,78,50,30.09,29.99,4,1,10,0.01
2013-8-21,88,76,65,71,67,63,94,77,53,30.06,29.95,3,1,11,0.01
2013-8-22,74,71,67,70,68,66,97,91,82,30.11,29.97,6,1,14,1.86
2013-8-23,82,71,63,69,64,56,99,79,50,30.13,30.06,5,1,11,0.01
2013-8-24,85,72,60,69,62,-100,93,74,58,30.22,30.12,4,1,9,0.01
2013-8-25,86,75,65,71,66,59,92,73,58,30.23,30.11,4,1,10,0.00
2013-8-26,89,76,64,76,70,62,94,81,63,30.14,29.97,2,0,8,0.00
2013-8-27,90,77,71,77,72,69,94,85,63,29.98,29.88,3,0,11,0.00
2013-8-28,88,83,74,79,75,69,86,78,72,29.98,29.89,5,2,10,0.00
2013-8-29,85,75,69,75,70,67,96,86,64,30.04,29.93,3,0,8,0.00
2013-8-30,96,78,68,80,72,65,97,81,56,29.94,29.72,6,1,21,0.01
2013-8-31,83,74,69,75,68,-100,92,83,73,29.80,29.70,5,1,13,0.02